Location: Grange Verzio
(44.5000°N, 6.9833°E)
Time: 19:03:30
(UTC+00:00)

Cosmos 2219 Rocket - Pass Details

Date: 02 October 2023
Orbit: 826 x 848 km, 71.0° (Epoch: 08 December)

Event Time Altitude Azimuth Distance (km) Brightness Sun altitude
Rises 03:23:07 0° 330° (NNW) 3,398 5.2 -23.2°
Reaches altitude 10° 03:25:37 10° 325° (NW) 2,463 4.5 -22.8°
Maximum altitude 03:31:02 50° 252° (WSW) 1,063 2.3 -21.9°
Drops below altitude 10° 03:36:29 10° 178° (S) 2,459 4.5 -20.9°
Sets 03:38:58 0° 173° (S) 3,392 5.3 -20.5°
